Location: Koslow
(50.3020°N, 18.5663°E)
Time: 01:29:43
(UTC+00:00)

STARLINK-1305 - Pass Details

Date: 07 June 2020
Orbit: 548 x 551 km, 53.0° (Epoch: 12 July)

Event Time Altitude Azimuth Distance (km) Brightness Sun altitude
Exits shadow 01:02:53 16° 217° (SW) 1,490 5.2 -10.8°
Maximum altitude 01:05:59 47° 147° (SSE) 733 4.1 -10.5°
Drops below altitude 10° 01:09:58 10° 74° (ENE) 1,825 7.1 -10.2°
Sets 01:12:15 0° 68° (ENE) 2,721 8.2 -10.0°
